Location: Coche
(10.4506°N, 66.9257°W)
Time: 05:19:33
(UTC+00:00)

YAOGAN 1 - Pass Details

Date: 06 July 2022
Orbit: 617 x 619 km, 97.9° (Epoch: 12 August)

Event Time Altitude Azimuth Distance (km) Brightness Sun altitude
Rises 23:12:56 0° 153° (SSE) 2,884 5.5 -5.1°
Reaches altitude 10° 23:15:14 10° 145° (SE) 1,978 4.6 -5.6°
Maximum altitude 23:19:13 37° 77° (ENE) 957 3.2 -6.5°
Drops below altitude 10° 23:23:12 10° 10° (N) 1,978 5.4 -7.4°
Sets 23:25:29 0° 2° (N) 2,883 6.3 -7.9°
